Adrianu Mare, Romania

7:14 AM EET on December 08, 2016 (GMT +0200)
Vidrasau

Weather History for LRTM - February, 2013

Change the Weather History Date:

Saturday, February 23, 2013

  Actual Average Record
Temperature  
Mean Temperature 43 °F -  
Max Temperature 53 °F 39 °F 61 °F (2016)
Min Temperature 33 °F 24 °F 0 °F (2003)
Degree Days  
Heating Degree Days 22    
Moisture  
Dew Point 32 °F    
Average Humidity 65    
Maximum Humidity 87    
Minimum Humidity 44    
Precipitation  
Precipitation 0.00 in - - ()
Sea Level Pressure  
Sea Level Pressure 29.87 in    
Wind  
Wind Speed 7 mph ()    
Max Wind Speed 18 mph    
Max Gust Speed -    
Visibility 6.2 miles    
Events      
Averages and records for this station are not official NWS values.
T = Trace of Precipitation, MM = Missing Value Source: Averaged Metar Reports

Daily Weather History Graph

Daily Weather History Graph

Search for Another Location

Airport or City:

Trip Planner

Search our weather history database for the weather conditions in past years. The results will help you decide how hot, cold, wet, or windy it might be!

Date:

Astronomy

Feb. 23, 2013 Rise Set
Actual Time 7:12 AM EET 5:59 PM EET
Civil Twilight 6:41 AM EET 6:30 PM EET
Nautical Twilight 6:07 AM EET 7:05 PM EET
Astronomical Twilight 5:32 AM EET 7:40 PM EET
Moon 3:46 PM EET (2/23) 5:29 AM EET (2/23)
Length of Visible Light 11h 48m
Length of Day
10h 47m
Waxing Gibbous, 94% of the Moon is Illuminated
Feb 23
Waxing Gibbous
Feb 25
Full
Mar 4
Last Quarter
Mar 11
New
Mar 19
First Quarter

Hourly Weather History & Observations

Time (EET) Temp. Windchill Dew Point Humidity Pressure Visibility Wind Dir Wind Speed Gust Speed Precip Events Conditions
12:00 AM 35.6 °F - 32.0 °F 87% 29.80 in 6.2 mi ESE 2.3 mph - N/A   Partly Cloudy
1:00 AM 37.4 °F - 32.0 °F 81% 29.83 in - East 2.3 mph - N/A   Clear
2:00 AM 37.4 °F 32.1 °F 32.0 °F 81% 29.80 in - East 6.9 mph - N/A   Clear
3:00 AM 37.4 °F 33.8 °F 32.0 °F 81% 29.83 in - East 4.6 mph - N/A   Clear
4:00 AM 37.4 °F 32.1 °F 32.0 °F 81% 29.80 in - ENE 6.9 mph - N/A   Clear
5:00 AM 37.4 °F 32.1 °F 32.0 °F 81% 29.83 in - ENE 6.9 mph - N/A   Clear
5:30 AM 37.4 °F 33.8 °F 32.0 °F 81% 29.83 in - East 4.6 mph - N/A   Clear
6:00 AM 37.4 °F 33.8 °F 32.0 °F 81% 29.83 in - East 4.6 mph - N/A   Clear
6:30 AM 37.4 °F - 30.2 °F 75% 29.83 in - East 2.3 mph - N/A   Clear
7:00 AM 37.4 °F - 30.2 °F 75% 29.83 in - East 2.3 mph - N/A   Clear
7:30 AM 35.6 °F - 30.2 °F 81% 29.83 in - Calm Calm - N/A   Clear
8:00 AM 33.8 °F - 30.2 °F 87% 29.83 in - Calm Calm - N/A   Clear
8:30 AM 35.6 °F - 30.2 °F 81% 29.86 in - West 2.3 mph - N/A   Clear
9:00 AM 39.2 °F - 33.8 °F 81% 29.86 in - Calm Calm - N/A   Clear
9:30 AM 42.8 °F - 33.8 °F 70% 29.86 in - Variable 2.3 mph - N/A   Clear
10:00 AM 46.4 °F 40.4 °F 32.0 °F 57% 29.86 in - SE 13.8 mph - N/A   Clear
10:30 AM 48.2 °F - 32.0 °F 54% 29.86 in - ESE 16.1 mph - N/A   Clear
11:00 AM 50.0 °F - 32.0 °F 50% 29.86 in - ESE 18.4 mph - N/A   Clear
11:30 AM 50.0 °F - 32.0 °F 50% 29.86 in - ESE 16.1 mph - N/A   Clear
12:00 PM 51.8 °F - 32.0 °F 47% 29.86 in - ESE 13.8 mph - N/A   Clear
12:30 PM 51.8 °F - 32.0 °F 47% 29.86 in - ESE 16.1 mph - N/A   Clear
1:00 PM 53.6 °F - 32.0 °F 44% 29.86 in - ESE 13.8 mph - N/A   Clear
1:30 PM 53.6 °F - 33.8 °F 47% 29.86 in 6.2 mi East 16.1 mph - N/A   Partly Cloudy
2:00 PM 53.6 °F - 33.8 °F 47% 29.86 in 6.2 mi East 16.1 mph - N/A   Partly Cloudy
2:30 PM 51.8 °F - 33.8 °F 50% 29.83 in 6.2 mi East 16.1 mph - N/A   Partly Cloudy
3:00 PM 53.6 °F - 33.8 °F 47% 29.86 in 6.2 mi ESE 18.4 mph - N/A   Partly Cloudy
3:30 PM 53.6 °F - 33.8 °F 47% 29.86 in 6.2 mi ESE 16.1 mph - N/A   Partly Cloudy
4:00 PM 51.8 °F - 33.8 °F 50% 29.86 in 6.2 mi ESE 16.1 mph - N/A   Partly Cloudy
4:30 PM 51.8 °F - 33.8 °F 50% 29.89 in 6.2 mi ESE 18.4 mph - N/A   Partly Cloudy
5:00 PM 50.0 °F - 33.8 °F 54% 29.89 in 6.2 mi ESE 13.8 mph - N/A   Partly Cloudy
5:30 PM 48.2 °F - 33.8 °F 58% 29.92 in 6.2 mi ESE 9.2 mph - N/A   Scattered Clouds
6:00 PM 46.4 °F 41.9 °F 33.8 °F 62% 29.92 in 6.2 mi ESE 9.2 mph - N/A   Scattered Clouds
6:30 PM 44.6 °F 39.7 °F 33.8 °F 66% 29.95 in 6.2 mi East 9.2 mph - N/A   Partly Cloudy
7:00 PM 44.6 °F 39.7 °F 33.8 °F 66% 29.95 in 6.2 mi ESE 9.2 mph - N/A   Partly Cloudy
7:30 PM 44.6 °F 39.7 °F 33.8 °F 66% 29.95 in - East 9.2 mph - N/A   Clear
8:00 PM 44.6 °F 39.7 °F 33.8 °F 66% 29.98 in - East 9.2 mph - N/A   Clear
8:30 PM 42.8 °F 37.5 °F 32.0 °F 66% 29.98 in - ESE 9.2 mph - N/A   Clear
9:00 PM 42.8 °F 38.6 °F 32.0 °F 66% 29.98 in - East 6.9 mph - N/A   Clear
10:00 PM 41.0 °F 34.3 °F 32.0 °F 70% 29.98 in 6.2 mi East 11.5 mph - N/A   Unknown
11:00 PM 37.4 °F 33.8 °F 30.2 °F 75% 29.98 in - East 4.6 mph - N/A   Clear